Orbital Elements at Epoch 2459200.5 (2020-Dec-17.0) TDB
Reference: JPL 20 (heliocentric ecliptic J2000)
Element | Value | Uncertainty (1-sigma) | Units |
e | .06546631658238962 | 4.2753e-08 | |
a | 2.377041939942324 | 1.5477e-08 | au |
q | 2.221425759772442 | 9.8282e-08 | au |
i | 5.787906566574148 | 3.9532e-06 | deg |
node | 290.80031880 | 4.8545e-05 | deg |
peri | 296.7718122210488 | 6.6218e-05 | deg |
M | 57.34763176530123 | 4.1734e-05 | deg |
tp | 2458987.260978689460 (2020-May-17.76097869) | 0.00015631 | TDB |
period | 1338.608854607358 3.66 | 1.3074e-05 3.579e-08 | d yr |
n | .2689359171358504 | 2.6266e-09 | deg/d |
Q | 2.532658120112206 | 1.649e-08 | au |
|
| | Orbit Determination Parameters
Additional Information
|